• In Uzbekistan
  • List of Countries
  • For 7 days
  • Water Temperature
  • Satellite Maps
  • Weather Map
  • Weather Widgets
  • user-avatar
    Login

    Hourly Weather Novomatviivs'ke

    Today, 17 December, Sunday

    Time Temperature Precipitation Wind Pressure Humidity
    00:00 +10°C° 0 mm 4 mps 751 mmHg 92%
    01:00 +9°C° 0 mm 3 mps 751 mmHg 92%
    02:00 +9°C° 0 mm 3 mps 751 mmHg 92%
    03:00 +9°C° 0.1 mm 3 mps 751 mmHg 89%
    04:00 +7°C° 0.1 mm 4 mps 752 mmHg 87%
    05:00 +7°C° 0.1 mm 4 mps 752 mmHg 85%
    06:00 +7°C° 0.1 mm 4 mps 752 mmHg 83%
    07:00 +6°C° 0.1 mm 4 mps 753 mmHg 81%
    08:00 +6°C° 0.1 mm 5 mps 753 mmHg 79%
    09:00 +6°C° 0 mm 5 mps 753 mmHg 77%
    10:00 +6°C° 0 mm 5 mps 753 mmHg 76%
    11:00 +6°C° 0 mm 5 mps 753 mmHg 74%
    12:00 +6°C° 1.2 mm 5 mps 753 mmHg 76%
    13:00 +5°C° 1.2 mm 5 mps 753 mmHg 79%
    14:00 +5°C° 1.2 mm 5 mps 753 mmHg 81%
    15:00 +4°C° 2.1 mm 6 mps 753 mmHg 83%
    16:00 +4°C° 2.1 mm 6 mps 752 mmHg 84%
    17:00 +3°C° 2.1 mm 6 mps 752 mmHg 86%
    18:00 +3°C° 2 mm 6 mps 752 mmHg 87%
    19:00 +3°C° 2 mm 6 mps 752 mmHg 88%
    20:00 +3°C° 2 mm 6 mps 751 mmHg 88%
    21:00 +4°C° 1.4 mm 6 mps 751 mmHg 89%
    22:00 +5°C° 1.4 mm 5 mps 751 mmHg 90%
    23:00 +5°C° 1.4 mm 5 mps 751 mmHg 90%

    Tomorrow, 18 December, Monday

    Time Temperature Precipitation Wind Pressure Humidity
    00:00 +5°C° 0.8 mm 5 mps 751 mmHg 90%
    01:00 +5°C° 0.8 mm 5 mps 750 mmHg 90%
    02:00 +5°C° 0.8 mm 5 mps 750 mmHg 90%
    03:00 +3°C° 0.1 mm 5 mps 750 mmHg 88%
    04:00 +3°C° 0.1 mm 6 mps 750 mmHg 87%
    05:00 +2°C° 0.1 mm 6 mps 750 mmHg 86%
    06:00 +2°C° 0 mm 6 mps 751 mmHg 84%
    07:00 +1°C° 0 mm 6 mps 751 mmHg 83%
    08:00 0°C° 0 mm 7 mps 752 mmHg 82%
    09:00 0°C° 0 mm 7 mps 753 mmHg 80%
    10:00 0°C° 0 mm 7 mps 754 mmHg 78%
    11:00 0°C° 0 mm 7 mps 754 mmHg 77%
    12:00 0°C° 0 mm 7 mps 755 mmHg 76%
    13:00 0°C° 0 mm 7 mps 755 mmHg 75%
    14:00 -1°C° 0 mm 7 mps 756 mmHg 75%
    15:00 -1°C° 0 mm 6 mps 756 mmHg 75%
    16:00 -1°C° 0 mm 6 mps 756 mmHg 75%
    17:00 -1°C° 0 mm 6 mps 757 mmHg 75%
    18:00 -1°C° 0 mm 6 mps 757 mmHg 76%
    19:00 -1°C° 0 mm 5 mps 758 mmHg 76%
    20:00 -1°C° 0 mm 5 mps 758 mmHg 76%
    21:00 -1°C° 0 mm 5 mps 758 mmHg 78%
    22:00 -1°C° 0 mm 4 mps 759 mmHg 79%
    23:00 -1°C° 0 mm 3 mps 759 mmHg 81%

    Day after tomorrow, 19 December, Tuesday

    Time Temperature Precipitation Wind Pressure Humidity
    00:00 -1°C° 0 mm 3 mps 759 mmHg 82%
    01:00 -1°C° 0 mm 3 mps 760 mmHg 83%
    02:00 -2°C° 0 mm 3 mps 760 mmHg 84%
    03:00 -2°C° 0 mm 3 mps 760 mmHg 83%
    04:00 -3°C° 0 mm 4 mps 760 mmHg 83%
    05:00 -3°C° 0 mm 4 mps 761 mmHg 82%
    06:00 -3°C° 0 mm 4 mps 761 mmHg 81%
    07:00 -3°C° 0 mm 4 mps 761 mmHg 81%
    08:00 -3°C° 0 mm 4 mps 762 mmHg 80%
    09:00 -3°C° 0 mm 4 mps 762 mmHg 76%
    10:00 -2°C° 0 mm 4 mps 763 mmHg 71%
    11:00 -1°C° 0 mm 4 mps 763 mmHg 66%
    12:00 -1°C° 0 mm 4 mps 763 mmHg 65%
    13:00 0°C° 0 mm 4 mps 763 mmHg 64%
    14:00 0°C° 0 mm 4 mps 763 mmHg 63%
    15:00 -1°C° 0 mm 4 mps 763 mmHg 69%
    16:00 -1°C° 0 mm 3 mps 764 mmHg 74%
    17:00 -2°C° 0 mm 3 mps 764 mmHg 79%
    18:00 -2°C° 0 mm 3 mps 764 mmHg 80%
    19:00 -2°C° 0 mm 3 mps 765 mmHg 82%
    20:00 -3°C° 0 mm 2 mps 765 mmHg 84%
    21:00 -3°C° 0 mm 2 mps 765 mmHg 83%
    22:00 -3°C° 0 mm 2 mps 765 mmHg 82%
    23:00 -3°C° 0 mm 2 mps 765 mmHg 82%

    20 December, Wednesday

    Time Temperature Precipitation Wind Pressure Humidity
    00:00 -3°C° 0 mm 2 mps 765 mmHg 81%
    01:00 -3°C° 0 mm 2 mps 765 mmHg 81%
    02:00 -3°C° 0 mm 2 mps 765 mmHg 80%
    03:00 -3°C° 0 mm 2 mps 765 mmHg 80%
    04:00 -3°C° 0 mm 2 mps 766 mmHg 79%
    05:00 -4°C° 0 mm 2 mps 766 mmHg 79%
    06:00 -4°C° 0 mm 2 mps 766 mmHg 78%
    07:00 -4°C° 0 mm 2 mps 766 mmHg 77%
    08:00 -2°C° 0 mm 1 mps 767 mmHg 76%
    09:00 -3°C° 0 mm 2 mps 767 mmHg 71%
    10:00 -2°C° 0 mm 2 mps 767 mmHg 65%
    11:00 -1°C° 0 mm 3 mps 767 mmHg 59%
    12:00 -1°C° 0 mm 3 mps 766 mmHg 58%
    13:00 -1°C° 0 mm 3 mps 766 mmHg 57%
    14:00 -1°C° 0 mm 3 mps 766 mmHg 56%
    15:00 -1°C° 0 mm 3 mps 766 mmHg 61%
    16:00 -2°C° 0 mm 3 mps 766 mmHg 65%
    17:00 -4°C° 0 mm 3 mps 766 mmHg 69%
    18:00 -4°C° 0 mm 3 mps 766 mmHg 71%
    19:00 -4°C° 0 mm 3 mps 767 mmHg 72%
    20:00 -5°C° 0 mm 3 mps 767 mmHg 74%
    21:00 -4°C° 0 mm 3 mps 767 mmHg 73%
    22:00 -4°C° 0 mm 3 mps 767 mmHg 72%
    23:00 -4°C° 0 mm 3 mps 767 mmHg 72%

    21 December, Thursday

    Time Temperature Precipitation Wind Pressure Humidity
    00:00 -4°C° 0 mm 3 mps 766 mmHg 71%
    01:00 -4°C° 0 mm 4 mps 766 mmHg 70%
    02:00 -4°C° 0 mm 4 mps 766 mmHg 70%
    03:00 -4°C° 0 mm 4 mps 766 mmHg 70%
    04:00 -4°C° 0 mm 4 mps 765 mmHg 69%
    05:00 -4°C° 0 mm 3 mps 765 mmHg 69%
    06:00 -4°C° 0 mm 4 mps 765 mmHg 69%
    07:00 -4°C° 0 mm 4 mps 765 mmHg 69%
    08:00 -4°C° 0 mm 4 mps 765 mmHg 69%
    09:00 -4°C° 0 mm 4 mps 765 mmHg 66%
    10:00 -3°C° 0 mm 4 mps 764 mmHg 64%
    11:00 -3°C° 0 mm 4 mps 764 mmHg 61%
    12:00 -3°C° 0 mm 4 mps 763 mmHg 60%
    13:00 -2°C° 0 mm 4 mps 763 mmHg 58%
    14:00 -2°C° 0 mm 4 mps 762 mmHg 57%
    15:00 -3°C° 0 mm 4 mps 762 mmHg 61%
    16:00 -3°C° 0 mm 4 mps 762 mmHg 64%
    17:00 -4°C° 0 mm 3 mps 762 mmHg 68%
    18:00 -4°C° 0 mm 3 mps 762 mmHg 70%
    19:00 -4°C° 0 mm 3 mps 762 mmHg 73%
    20:00 -4°C° 0 mm 3 mps 762 mmHg 75%
    21:00 -5°C° 0 mm 3 mps 762 mmHg 76%
    22:00 -5°C° 0 mm 3 mps 761 mmHg 78%
    23:00 -5°C° 0 mm 3 mps 761 mmHg 80%

    22 December, Friday

    Time Temperature Precipitation Wind Pressure Humidity
    00:00 -5°C° 0 mm 3 mps 761 mmHg 80%
    01:00 -4°C° 0 mm 2 mps 761 mmHg 81%
    02:00 -4°C° 0 mm 2 mps 760 mmHg 81%
    03:00 -4°C° 0 mm 2 mps 760 mmHg 81%
    04:00 -4°C° 0 mm 2 mps 760 mmHg 80%
    05:00 -4°C° 0 mm 2 mps 760 mmHg 80%
    06:00 -4°C° 0 mm 2 mps 759 mmHg 79%
    07:00 -4°C° 0 mm 2 mps 759 mmHg 78%
    08:00 -4°C° 0 mm 2 mps 759 mmHg 77%
    09:00 -4°C° 0 mm 3 mps 759 mmHg 71%
    10:00 -2°C° 0 mm 3 mps 758 mmHg 66%
    11:00 -2°C° 0 mm 4 mps 758 mmHg 60%
    12:00 -1°C° 0 mm 4 mps 758 mmHg 62%
    13:00 -1°C° 0 mm 4 mps 757 mmHg 64%
    14:00 -1°C° 0 mm 4 mps 757 mmHg 65%
    15:00 -1°C° 0 mm 4 mps 756 mmHg 69%
    16:00 -1°C° 0 mm 3 mps 756 mmHg 73%
    17:00 -1°C° 0 mm 3 mps 756 mmHg 76%
    18:00 -1°C° 0 mm 3 mps 756 mmHg 78%
    19:00 -2°C° 0 mm 3 mps 756 mmHg 79%
    20:00 -2°C° 0 mm 3 mps 755 mmHg 80%
    21:00 -2°C° 0 mm 3 mps 755 mmHg 80%
    22:00 -2°C° 0 mm 3 mps 755 mmHg 80%
    23:00 -1°C° 0 mm 3 mps 755 mmHg 80%
    Show more